Location: Krakow
(50.0830°N, 19.9170°E)
Time: 02:40:48
(UTC+01:00)

X-37B - Visible Passes

Search period start: 10 December 2022 00:00
Search period end: 20 December 2022 00:00
Orbit: 277 x 277 km, 45.0° (Epoch: 01 November)

Date Brightness Start Highest point End Pass type
(mag) Time Alt. Az. Time Alt. Az. Time Alt. Az.
10 Dec 2.5 17:02:22 10° SSW 17:03:43 14° SSE 17:04:40 12° SE visible
11 Dec 2.2 17:02:29 10° SSW 17:04:15 18° SSE 17:05:18 14° SE visible
12 Dec 2.0 17:02:49 10° SW 17:04:48 21° S 17:05:57 16° SE visible
13 Dec 1.8 17:03:17 10° SW 17:05:21 24° S 17:06:37 16° SE visible
14 Dec 1.9 17:03:50 10° WSW 17:05:56 24° S 17:07:19 15° SE visible
15 Dec 2.0 17:04:27 10° WSW 17:06:30 23° S 17:08:06 13° SE visible
16 Dec 2.3 17:05:08 10° WSW 17:07:03 20° SSW 17:08:58 10° SE visible
17 Dec 2.8 17:05:57 10° WSW 17:07:35 16° SSW 17:09:14 10° SSE visible
18 Dec 3.1 17:07:02 10° SW 17:08:06 12° SSW 17:09:10 10° S visible
